FW2876 Weather Reports


Display with metric or nautical units.
time (UTC)temp
F
wind
direction
speed
MPH
gust
MPH
rain 1hr
in
rain 24hr
in
rain mn
in
humidity
%
barometer
mb
20260906220020 93 360 4.0 11.0 0.00 0.00 0.00 29 1008.7
20260906214518 92 360 6.0 18.0 0.00 0.00 0.00 31 1008.9
20260906213016 95 360 15.0 24.0 0.00 0.00 0.00 27 1008.8
20260906211515 96 360 6.0 12.0 0.00 0.00 0.00 26 1009.0
20260906210016 97 360 4.0 12.0 0.00 0.00 0.00 25 1009.3
20260906204510 96 360 8.0 14.0 0.00 0.00 0.00 26 1009.6
20260906203025 96 360 3.0 14.0 0.00 0.00 0.00 26 1009.7
20260906201507 96 360 4.0 14.0 0.00 0.00 0.00 26 1009.9
20260906200004 96 360 9.0 15.0 0.00 0.00 0.00 26 1010.2
20260906194501 95 360 9.0 13.0 0.00 0.00 0.00 27 1010.3
20260906193100 95 360 8.0 15.0 0.00 0.00 0.00 27 1010.5
20260906191606 95 360 5.0 19.0 0.00 0.00 0.00 28 1010.6
20260906190055 94 360 6.0 18.0 0.00 0.00 0.00 28 1010.8
20260906184553 95 360 9.0 15.0 0.00 0.00 0.00 28 1011.1
20260906183101 93 360 9.0 13.0 0.00 0.00 0.00 28 1011.2
20260906181550 93 360 8.0 15.0 0.00 0.00 0.00 30 1011.5
20260906180104 93 360 6.0 18.0 0.00 0.00 0.00 30 1011.6
20260906174559 92 360 9.0 17.0 0.00 0.00 0.00 31 1011.9
20260906173046 92 360 7.0 13.0 0.00 0.00 0.00 31 1012.1
20260906171603 94 360 9.0 16.0 0.00 0.00 0.00 31 1012.3
20260906170046 92 360 9.0 14.0 0.00 0.00 0.00 32 1012.4
20260906164540 92 360 5.0 12.0 0.00 0.00 0.00 33 1012.6
20260906163036 92 360 7.0 14.0 0.00 0.00 0.00 33 1012.6
20260906161546 91 360 8.0 13.0 0.00 0.00 0.00 33 1012.5
20260906160033 91 54 0.0 5.0 0.00 0.00 0.00 36 1012.4
20260906154528 89 299 1.0 7.0 0.00 0.00 0.00 37 1012.5
20260906153040 89 296 2.0 7.0 0.00 0.00 0.00 38 1012.5
20260906151524 87 284 2.0 9.0 0.00 0.00 0.00 40 1012.5
20260906150022 87 360 4.0 9.0 0.00 0.00 0.00 42 1012.5
20260906144523 86 360 4.0 6.0 0.00 0.00 0.00 44 1012.4
20260906143013 84 360 3.0 6.0 0.00 0.00 0.00 45 1012.6
20260906141511 82 360 3.0 8.0 0.00 0.00 0.00 48 1012.5
20260906140011 80 360 3.0 5.0 0.00 0.00 0.00 50 1012.4
20260906134508 78 360 2.0 5.0 0.00 0.00 0.00 52 1012.4
20260906133009 78 360 0.0 0.0 0.00 0.00 0.00 51 1012.3
20260906131507 76 360 0.0 0.0 0.00 0.00 0.00 55 1012.3
20260906130010 75 360 0.0 0.0 0.00 0.00 0.00 56 1012.1
20260906124504 75 360 0.0 0.0 0.00 0.00 0.00 57 1011.9
20260906123007 75 209 0.0 0.0 0.00 0.00 0.00 57 1011.7
20260906121504 75 209 0.0 0.0 0.00 0.00 0.00 56 1011.4
20260906120106 75 360 1.0 5.0 0.00 0.00 0.00 56 1011.5
20260906114559 75 360 2.0 3.0 0.00 0.00 0.00 55 1011.2
20260906113058 76 360 2.0 4.0 0.00 0.00 0.00 55 1011.2
20260906111553 76 360 1.0 4.0 0.00 0.00 0.00 54 1011.2
20260906110051 77 360 0.0 0.0 0.00 0.00 0.00 55 1010.9
20260906104551 77 360 0.0 4.0 0.00 0.00 0.00 54 1010.8
20260906103050 77 360 2.0 6.0 0.00 0.00 0.00 54 1010.5
20260906101547 78 360 0.0 0.0 0.00 0.00 0.00 52 1010.5
20260906100045 79 360 0.0 0.0 0.00 0.00 0.00 51 1010.3
20260906094556 79 360 0.0 0.0 0.00 0.00 0.00 52 1010.3
20260906093049 79 360 0.0 0.0 0.00 0.00 0.00 51 1010.3
20260906091542 79 360 0.0 4.0 0.00 0.00 0.00 51 1010.2
20260906090050 80 360 2.0 5.0 0.00 0.00 0.00 49 1010.2
20260906084539 82 360 9.0 15.0 0.00 0.00 0.00 48 1010.1
20260906083040 81 360 4.0 6.0 0.00 0.00 0.00 47 1010.2
20260906081536 82 360 7.0 11.0 0.00 0.00 0.00 46 1010.0
20260906080038 81 360 8.0 13.0 0.00 0.00 0.00 46 1010.0
20260906074533 81 360 4.0 9.0 0.00 0.00 0.00 45 1010.1
20260906073028 81 360 3.0 6.0 0.00 0.00 0.00 43 1010.1
20260906071528 82 360 4.0 9.0 0.00 0.00 0.00 42 1010.4
20260906070023 82 360 4.0 9.0 0.00 0.00 0.00 41 1010.6
20260906064520 83 360 5.0 11.0 0.00 0.00 0.00 39 1010.5
20260906063019 83 360 7.0 12.0 0.00 0.00 0.00 39 1010.9
20260906061516 83 360 7.0 12.0 0.00 0.00 0.00 39 1011.1
20260906060020 84 360 7.0 12.0 0.00 0.00 0.00 38 1011.1
20260906054510 84 360 8.0 14.0 0.00 0.00 0.00 37 1011.2
20260906053008 84 360 7.0 13.0 0.00 0.00 0.00 37 1011.1
20260906051508 85 360 6.0 12.0 0.00 0.00 0.00 36 1011.1
20260906050100 84 360 6.0 10.0 0.00 0.00 0.00 37 1011.1
20260906044600 85 360 5.0 10.0 0.00 0.00 0.00 38 1011.2
20260906043059 85 360 6.0 12.0 0.00 0.00 0.00 37 1011.0
20260906041600 85 360 6.0 11.0 0.00 0.00 0.00 37 1011.0
20260906040059 86 360 8.0 13.0 0.00 0.00 0.00 36 1010.8
20260906034605 87 360 5.0 12.0 0.00 0.00 0.00 34 1010.7
20260906033057 88 360 13.0 17.0 0.00 0.00 0.00 32 1010.6
20260906031557 89 360 10.0 17.0 0.00 0.00 0.00 31 1010.3
20260906030056 89 360 13.0 18.0 0.00 0.00 0.00 30 1010.1
20260906024558 90 360 11.0 17.0 0.00 0.00 0.00 30 1009.8
20260906023055 90 360 11.0 16.0 0.00 0.00 0.00 31 1009.9
20260906021600 90 360 11.0 15.0 0.00 0.00 0.00 31 1009.7
20260906020157 91 360 10.0 12.0 0.00 0.00 0.00 31 1009.5
20260906014553 92 360 9.0 15.0 0.00 0.00 0.00 30 1009.1
20260906013054 92 360 11.0 14.0 0.00 0.00 0.00 29 1008.8
20260906011552 93 360 6.0 11.0 0.00 0.00 0.00 28 1008.5
20260906010125 94 360 7.0 13.0 0.00 0.00 0.00 28 1008.4
20260906004608 95 360 5.0 9.0 0.00 0.00 0.00 27 1008.6
20260906003051 95 360 8.0 13.0 0.00 0.00 0.00 26 1008.5
20260906001601 96 360 10.0 17.0 0.00 0.00 0.00 26 1008.6
20260906000052 96 360 13.0 18.0 0.00 0.00 0.00 26 1008.5
20260905234548 97 360 11.0 15.0 0.00 0.00 0.00 25 1008.4
20260905233049 97 360 10.0 14.0 0.00 0.00 0.00 25 1008.3
20260905231548 97 360 8.0 14.0 0.00 0.00 0.00 25 1008.3
20260905230047 97 360 7.0 13.0 0.00 0.00 0.00 25 1008.3
20260905224545 97 360 10.0 15.0 0.00 0.00 0.00 25 1008.4
20260905223051 97 360 2.0 17.0 0.00 0.00 0.00 26 1008.7
20260905221544 96 360 7.0 10.0 0.00 0.00 0.00 26 1008.6